This demonstration page uses our WeatherBlox Daily Observations layout. Learn more.

Left ArrowRight Arrow

Hourly Observations for November 19, 2021

Temp ( °F °C ) Dew Point ( °F °C ) Humidity (%) Winds ( mph kmh ) Pressure ( in mb ) Visibility ( mi km ) Precip ( " mm )
12:15 am 00:15 Partly Cloudy 43 6 28 -2 57 57 NW 22 35 30.21 1023 10 16 N/A
12:35 am 00:35 Clear 43 6 28 -2 57 57 NNW 12 19 30.22 1023 10 16 N/A
12:55 am 00:55 Clear 43 6 28 -2 57 57 NNW 10 17 30.21 1023 10 16 N/A
1:15 am 01:15 Partly Cloudy 43 6 28 -2 57 57 NNW 14 22 30.21 1023 10 16 N/A
1:35 am 01:35 Mostly Cloudy 43 6 28 -2 57 57 NW 14 22 30.21 1023 10 16 N/A
1:55 am 01:55 Cloudy 43 6 30 -1 61 61 NW 8 13 30.22 1023 10 16 N/A
2:15 am 02:15 Cloudy 43 6 28 -2 57 57 N N/A 30.22 1023 10 16 N/A
2:35 am 02:35 Cloudy 43 6 30 -1 61 61 NNW 6 9 30.23 1024 10 16 N/A
2:55 am 02:55 Cloudy 43 6 28 -2 57 57 NNW 17 28 30.23 1024 10 16 N/A
3:15 am 03:15 Cloudy 43 6 28 -2 57 57 NW 17 28 30.23 1024 10 16 N/A
3:35 am 03:35 Partly Cloudy 43 6 28 -2 57 57 NW 17 28 30.24 1024 10 16 N/A
3:55 am 03:55 Clear 41 5 28 -2 61 61 NW 14 22 30.25 1025 10 16 N/A
4:15 am 04:15 Clear 41 5 28 -2 61 61 NW 16 26 30.25 1025 10 16 N/A
4:35 am 04:35 Clear 41 5 28 -2 61 61 NW 14 22 30.25 1025 10 16 N/A
4:55 am 04:55 Clear 41 5 28 -2 61 61 NW 10 17 30.27 1025 10 16 N/A
5:15 am 05:15 Mostly Cloudy 41 5 28 -2 61 61 W 10 17 30.27 1025 10 16 N/A
5:35 am 05:35 Mostly Cloudy 41 5 27 -3 57 57 WNW 8 13 30.28 1026 10 16 N/A
5:55 am 05:55 Mostly Cloudy 41 5 27 -3 57 57 WNW 18 30 30.29 1026 10 16 N/A
6:15 am 06:15 Mostly Cloudy 41 5 27 -3 57 57 WNW 17 28 30.30 1026 10 16 N/A
6:35 am 06:35 Cloudy 41 5 28 -2 61 61 WNW 13 20 30.31 1027 10 16 N/A
6:55 am 06:55 Cloudy 41 5 28 -2 61 61 WNW 20 31 30.32 1027 10 16 N/A
7:15 am 07:15 Cloudy 41 5 28 -2 61 61 NW 18 30 30.34 1028 10 16 N/A
7:35 am 07:35 Cloudy 41 5 27 -3 57 57 NW 25 41 30.35 1028 10 16 N/A
7:55 am 07:55 Cloudy 39 4 27 -3 61 61 NW 17 28 30.39 1029 10 16 N/A
8:15 am 08:15 Partly Cloudy 41 5 25 -4 53 53 WNW 22 35 30.39 1029 10 16 N/A
8:35 am 08:35 Sunny 41 5 25 -4 53 53 NW 14 22 30.40 1030 10 16 N/A
8:55 am 08:55 Sunny 41 5 23 -5 49 49 NW 22 35 30.41 1030 10 16 N/A
9:15 am 09:15 Sunny 41 5 23 -5 49 49 NNW 21 33 30.42 1030 10 16 N/A
9:35 am 09:35 Sunny 41 5 23 -5 49 49 NW 18 30 30.44 1031 10 16 N/A
9:55 am 09:55 Sunny 43 6 23 -5 46 46 NW 16 26 30.44 1031 10 16 N/A
10:15 am 10:15 Sunny 41 5 23 -5 49 49 NW 15 24 30.45 1031 10 16 N/A
10:35 am 10:35 Sunny 43 6 25 -4 49 49 NW 21 33 30.46 1032 10 16 N/A
10:55 am 10:55 Sunny 43 6 25 -4 49 49 NW 18 30 30.46 1032 10 16 N/A
11:15 am 11:15 Sunny 45 7 27 -3 49 49 NW 13 20 30.46 1032 10 16 N/A
11:35 am 11:35 Partly Cloudy 45 7 27 -3 49 49 NNW 15 24 30.45 1031 10 16 N/A
11:55 am 11:55 Mostly Cloudy 45 7 27 -3 49 49 NW 13 20 30.46 1032 10 16 N/A
12:15 pm 12:15 Mostly Cloudy 45 7 25 -4 46 46 N 15 24 30.45 1031 10 16 N/A
12:35 pm 12:35 Partly Cloudy 45 7 27 -3 49 49 NNW 16 26 30.45 1031 10 16 N/A
12:55 pm 12:55 Sunny 45 7 27 -3 49 49 NW 18 30 30.45 1031 10 16 N/A
1:15 pm 13:15 Sunny 45 7 27 -3 49 49 NNW 16 26 30.45 1031 10 16 N/A
1:35 pm 13:35 Partly Cloudy 45 7 27 -3 49 49 NW 12 19 30.46 1032 10 16 N/A
1:55 pm 13:55 Partly Cloudy 45 7 27 -3 49 49 NNW 17 28 30.46 1032 10 16 N/A
2:15 pm 14:15 Partly Cloudy 45 7 27 -3 49 49 NNW 15 24 30.47 1032 10 16 N/A
2:35 pm 14:35 Partly Cloudy 45 7 27 -3 49 49 N 12 19 30.47 1032 10 16 N/A
2:55 pm 14:55 Sunny 45 7 27 -3 49 49 N 9 15 30.47 1032 10 16 N/A
3:15 pm 15:15 Sunny 45 7 27 -3 49 49 N 17 28 30.47 1032 10 16 N/A
3:35 pm 15:35 Partly Cloudy 45 7 27 -3 49 49 N 9 15 30.48 1032 10 16 N/A
3:55 pm 15:55 Mostly Cloudy 43 6 27 -3 53 53 N 16 26 30.49 1033 10 16 N/A
4:15 pm 16:15 Partly Cloudy 43 6 27 -3 53 53 N 10 17 30.49 1033 10 16 N/A
4:35 pm 16:35 Sunny 43 6 27 -3 53 53 N 12 19 30.50 1033 10 16 N/A
4:55 pm 16:55 Clear 41 5 27 -3 57 57 NNW 10 17 30.50 1033 10 16 N/A
5:15 pm 17:15 Clear 41 5 27 -3 57 57 N 12 19 30.50 1033 10 16 N/A
5:35 pm 17:35 Clear 39 4 27 -3 61 61 N 8 13 30.52 1033 10 16 N/A
5:55 pm 17:55 Clear 39 4 27 -3 61 61 N 9 15 30.53 1034 10 16 N/A
6:15 pm 18:15 Clear 37 3 27 -3 65 65 N 7 11 30.54 1034 10 16 N/A
6:35 pm 18:35 Clear 37 3 27 -3 65 65 N 7 11 30.54 1034 10 16 N/A
6:55 pm 18:55 Clear 37 3 27 -3 65 65 NNE 5 7 30.54 1034 10 16 N/A
7:15 pm 19:15 Clear 37 3 27 -3 65 65 N 9 15 30.53 1034 10 16 N/A
7:35 pm 19:35 Clear 37 3 27 -3 65 65 N 7 11 30.54 1034 10 16 N/A
7:55 pm 19:55 Clear 37 3 27 -3 65 65 NNE 6 9 30.54 1034 10 16 N/A
8:15 pm 20:15 Clear 37 3 27 -3 65 65 N 7 11 30.55 1034 10 16 N/A
8:35 pm 20:35 Clear 36 2 27 -3 70 70 N 6 9 30.55 1035 10 16 N/A
8:55 pm 20:55 Clear 36 2 27 -3 70 70 N 5 7 30.55 1035 10 16 N/A
9:15 pm 21:15 Clear 36 2 27 -3 70 70 N N/A 30.56 1035 10 16 N/A
9:35 pm 21:35 Clear 36 2 27 -3 70 70 N N/A 30.56 1035 10 16 N/A
9:55 pm 21:55 Clear 32 undefined 28 -2 87 87 N N/A 30.57 1035 10 16 N/A
10:15 pm 22:15 Clear 32 undefined 28 -2 87 87 N N/A 30.57 1035 10 16 N/A
10:35 pm 22:35 Clear 32 undefined 28 -2 87 87 N N/A 30.56 1035 10 16 N/A
10:55 pm 22:55 Clear 32 undefined 28 -2 87 87 W 5 7 30.57 1035 10 16 N/A
11:15 pm 23:15 Clear 32 undefined 28 -2 87 87 W 3 6 30.57 1035 10 16 N/A
11:35 pm 23:35 Clear 32 undefined 28 -2 87 87 W 5 7 30.57 1035 10 16 N/A
11:55 pm 23:55 Clear 32 undefined 27 -3 80 80 W 6 9 30.57 1035 10 16 N/A

Powered by AerisWeather